Waarnemingen

Advertentie
Mijn weer
Girona/Costa Brava, Spanje (8184): temperatuur & dauwpunt: 14.10.2018 21:00:00 - 20.10.2018 21:00:00 (CEST)Girona/Costa Brava, Spanje (8184): windsnelheid: 14.10.2018 21:00:00 - 20.10.2018 21:00:00 (CEST)Girona/Costa Brava, Spanje (8184): windrichting: 14.10.2018 21:00:00 - 20.10.2018 21:00:00 (CEST)Girona/Costa Brava, Spanje (8184): luchtdruk: 14.10.2018 21:00:00 - 20.10.2018 21:00:00 (CEST)Girona/Costa Brava, Spanje (8184): zicht: 14.10.2018 21:00:00 - 20.10.2018 21:00:00 (CEST)
Datum & Tijd tt [°C] td [°C] ff [km/u] ff [kn] dd ppp [hPa] vv [km]
20.10.2018 21:00:00 18,1 14,8 8 4 N 1022,4 -
20.10.2018 20:00:00 18,5 14,6 5 3 NW 1022,2 30
20.10.2018 19:00:00 19,6 14,6 9 5 NO 1021,3 -
20.10.2018 18:00:00 21,1 14,9 13 7 NO 1021,0 -
20.10.2018 17:00:00 23,1 14,9 13 7 NO 1020,9 22
20.10.2018 16:00:00 23,3 14,2 18 10 ONO 1021,1 -
20.10.2018 15:00:00 22,9 14,4 21 11 ONO 1021,5 -
20.10.2018 14:00:00 22,5 16,0 16 9 NO 1021,9 28
20.10.2018 13:00:00 21,6 14,7 21 11 NO 1022,5 -
20.10.2018 12:00:00 20,4 15,8 13 7 NNO 1022,5 -
20.10.2018 11:00:00 19,2 16,1 11 6 NO 1022,2 25
20.10.2018 10:00:00 17,6 15,3 11 6 NNO 1022,0 -
20.10.2018 09:00:00 16,4 15,1 8 4 N 1021,4 -
20.10.2018 08:00:00 16,5 14,9 8 4 N 1020,2 25
20.10.2018 07:00:00 16,7 14,9 13 7 N 1019,9 -
20.10.2018 06:00:00 16,6 15,0 11 6 NNO 1019,8 -
20.10.2018 05:00:00 16,5 14,9 13 7 NNO 1018,8 20
20.10.2018 04:00:00 16,7 14,5 2 1 N 1019,1 -
20.10.2018 03:00:00 17,2 14,3 0 0 N 1019,1 -
20.10.2018 02:00:00 17,6 13,9 11 6 NNO 1018,9 -
20.10.2018 01:00:00 18,0 14,3 18 10 NNO 1018,5 -
20.10.2018 00:00:00 18,0 14,9 15 8 NNO 1018,5 -
19.10.2018 23:00:00 18,2 14,9 16 9 NNO 1018,2 30
19.10.2018 22:00:00 18,0 15,3 13 7 NNO 1017,9 -
19.10.2018 21:00:00 18,6 15,0 13 7 NNO 1017,4 -
19.10.2018 20:00:00 18,6 15,7 11 6 NNO 1017,2 -
19.10.2018 19:00:00 19,4 15,7 11 6 NNO 1016,7 -
19.10.2018 18:00:00 20,2 15,5 11 6 NO 1016,2 -
19.10.2018 17:00:00 21,0 15,8 15 8 NO 1016,4 12
19.10.2018 16:00:00 21,9 16,0 18 10 NO 1016,2 -
19.10.2018 15:00:00 22,0 16,0 18 10 NNO 1016,1 -
19.10.2018 14:00:00 21,5 15,6 21 11 NNO 1016,4 14
19.10.2018 13:00:00 21,2 15,6 22 12 NO 1016,5 -
19.10.2018 12:00:00 20,7 14,8 21 11 NO 1016,6 -
19.10.2018 11:00:00 19,9 14,7 13 7 N 1016,3 15
19.10.2018 10:00:00 18,2 14,3 11 6 NNO 1016,4 -
19.10.2018 09:00:00 17,8 13,9 13 7 NNO 1015,6 -
19.10.2018 08:00:00 17,6 13,6 13 7 NNO 1014,5 10
19.10.2018 07:00:00 17,9 13,6 16 9 NO 1014,0 -
19.10.2018 06:00:00 17,9 13,9 15 8 NNO 1013,7 -
19.10.2018 05:00:00 17,9 13,6 21 11 NNO 1013,2 -
19.10.2018 04:00:00 18,0 13,9 24 13 NNO 1013,4 -
19.10.2018 03:00:00 17,6 14,3 21 11 NO 1013,5 -
19.10.2018 02:00:00 17,6 14,5 22 12 NO 1013,0 -
19.10.2018 01:00:00 17,6 14,9 18 10 NNO 1013,3 -
19.10.2018 00:00:00 18,2 14,8 15 8 NNO 1013,6 -
18.10.2018 23:00:00 18,0 14,7 16 9 NNO 1013,5 -
18.10.2018 22:00:00 18,0 14,6 22 12 NNO 1012,9 -
18.10.2018 21:00:00 18,3 15,0 18 10 NNO 1012,9 -
18.10.2018 20:00:00 18,5 15,2 16 9 NNO 1012,6 8
18.10.2018 19:00:00 18,7 15,5 21 11 NNO 1011,9 -
18.10.2018 18:00:00 19,1 16,0 21 11 NNO 1011,7 -
18.10.2018 17:00:00 19,4 16,6 24 13 NNO 1011,5 9
18.10.2018 16:00:00 19,0 17,1 24 13 NNO 1011,5 -
18.10.2018 15:00:00 18,8 17,5 24 13 NNO 1011,7 -
18.10.2018 14:00:00 18,1 17,6 22 12 NNO 1012,3 8
18.10.2018 13:00:00 17,2 16,9 18 10 NNO 1012,7 -
18.10.2018 12:00:00 17,2 16,7 21 11 NNO 1012,6 -
18.10.2018 11:00:00 16,2 16,0 4 2 N 1012,7 4,0
18.10.2018 10:00:00 16,0 15,7 9 5 N 1012,5 -
18.10.2018 09:00:00 15,9 15,4 13 7 NNO 1011,9 -
18.10.2018 08:00:00 16,0 15,0 16 9 NNO 1011,8 11
18.10.2018 07:00:00 15,9 15,1 16 9 NNO 1011,7 -
18.10.2018 06:00:00 16,3 15,3 9 5 N 1011,4 -
18.10.2018 05:00:00 16,5 15,0 13 7 NNO 1011,5 -
18.10.2018 04:00:00 16,4 15,1 16 9 NO 1011,8 -
18.10.2018 03:00:00 16,1 14,6 8 4 NNO 1012,5 -
18.10.2018 02:00:00 17,0 15,3 8 4 N 1012,7 11
18.10.2018 01:00:00 16,6 15,3 4 2 NNW 1013,4 -
18.10.2018 00:00:00 16,5 14,9 8 4 NNO 1014,0 -
17.10.2018 23:00:00 16,8 14,6 8 4 NNW 1014,0 11
17.10.2018 22:00:00 16,5 14,9 5 3 N 1014,1 -
17.10.2018 21:00:00 16,4 15,1 5 3 NNO 1014,1 -
17.10.2018 20:00:00 16,3 15,3 5 3 N 1014,0 4,0
17.10.2018 19:00:00 16,9 15,8 5 3 N 1013,6 -
17.10.2018 18:00:00 17,3 16,3 9 5 N 1013,8 -
17.10.2018 17:00:00 17,2 16,4 15 8 NNO 1014,1 -
17.10.2018 16:00:00 16,7 16,1 16 9 NNO 1014,2 -
17.10.2018 15:00:00 18,9 15,5 24 13 NO 1014,2 -
17.10.2018 14:00:00 20,3 15,7 18 10 NO 1014,7 17
17.10.2018 13:00:00 20,0 15,8 16 9 NO 1015,3 -
17.10.2018 12:00:00 20,0 15,9 16 9 NO 1015,5 -
17.10.2018 11:00:00 19,2 16,0 15 8 NNO 1015,7 17
17.10.2018 10:00:00 18,1 16,0 15 8 N 1015,8 -
17.10.2018 09:00:00 16,4 15,3 13 7 N 1016,1 -
17.10.2018 08:00:00 - - - - - - -
17.10.2018 07:00:00 15,9 15,3 5 3 NNO 1016,0 -
17.10.2018 06:00:00 15,8 15,2 11 6 N 1016,1 -
17.10.2018 05:00:00 15,9 15,3 11 6 NNO 1015,9 -
17.10.2018 04:00:00 15,9 15,4 8 4 NO 1016,4 -
17.10.2018 03:00:00 15,9 15,4 9 5 N 1016,7 -
17.10.2018 02:00:00 15,9 15,1 8 4 N 1017,0 -
17.10.2018 01:00:00 15,7 15,1 8 4 N 1017,2 -
17.10.2018 00:00:00 16,0 15,5 5 3 N 1017,3 -
16.10.2018 23:00:00 16,1 15,5 4 2 N 1017,4 -
16.10.2018 22:00:00 16,4 15,8 8 4 N 1017,5 -
16.10.2018 21:00:00 16,3 15,3 8 4 N 1017,3 -
16.10.2018 20:00:00 17,3 15,6 8 4 N 1016,7 1,5
16.10.2018 19:00:00 17,9 15,5 8 4 N 1016,0 -
16.10.2018 18:00:00 19,5 15,7 15 8 NO 1015,5 -
16.10.2018 17:00:00 20,1 15,5 11 6 ONO 1015,3 20
16.10.2018 16:00:00 20,1 14,8 15 8 ONO 1015,0 -
16.10.2018 15:00:00 20,6 14,6 16 9 NO 1014,9 -
16.10.2018 14:00:00 20,6 14,9 21 11 NO 1015,0 23
16.10.2018 13:00:00 21,3 15,4 15 8 NO 1015,3 -
16.10.2018 12:00:00 20,4 16,2 15 8 NNO 1015,2 -
16.10.2018 11:00:00 19,3 16,4 11 6 N 1015,1 -
16.10.2018 10:00:00 15,5 15,0 2 1 NO 1015,0 -
16.10.2018 09:00:00 13,0 12,8 2 1 NNO 1014,9 -
16.10.2018 08:00:00 13,0 12,8 8 4 NW 1014,0 -
16.10.2018 07:00:00 12,0 12,0 8 4 N 1013,3 -
16.10.2018 06:00:00 11,3 11,1 8 4 NO 1012,9 -
16.10.2018 05:00:00 11,8 11,6 0 0 N 1012,4 -
16.10.2018 04:00:00 12,2 12,0 0 0 N 1012,3 -
16.10.2018 03:00:00 12,9 12,6 0 0 N 1012,4 -
16.10.2018 02:00:00 13,4 13,2 4 2 N 1012,2 -
16.10.2018 01:00:00 13,9 13,6 4 2 W 1012,0 -
16.10.2018 00:00:00 14,8 14,3 0 0 N 1011,5 -
15.10.2018 23:00:00 15,7 15,2 0 0 N 1011,0 15
15.10.2018 22:00:00 16,0 15,4 0 0 N 1010,4 -
15.10.2018 21:00:00 16,0 15,4 0 0 N 1009,4 -
15.10.2018 20:00:00 16,0 15,4 5 3 NNW 1008,9 15
15.10.2018 19:00:00 16,3 15,7 8 4 NW 1008,2 -
15.10.2018 18:00:00 17,1 16,1 9 5 NNW 1007,4 -
15.10.2018 17:00:00 18,1 15,9 16 9 ONO 1006,7 15
15.10.2018 16:00:00 19,7 15,7 16 9 ONO 1006,1 -
15.10.2018 15:00:00 19,8 15,4 18 10 O 1005,7 -
15.10.2018 14:00:00 21,3 14,5 11 6 O 1005,6 15
15.10.2018 13:00:00 20,9 15,0 13 7 ONO 1005,8 -
15.10.2018 12:00:00 20,4 16,0 8 4 O 1005,8 -
15.10.2018 11:00:00 19,8 16,6 5 3 OZO 1005,2 15
15.10.2018 10:00:00 18,8 18,0 0 0 N 1004,6 -
15.10.2018 09:00:00 17,6 17,1 4 2 W 1004,2 -
15.10.2018 08:00:00 17,6 17,3 2 1 W 1003,2 3,0
15.10.2018 07:00:00 17,5 16,9 0 0 N 1003,3 -
15.10.2018 06:00:00 18,1 17,1 8 4 ZO 1003,1 -
15.10.2018 05:00:00 19,1 17,6 26 14 Z 1003,3 -
15.10.2018 04:00:00 19,1 18,1 26 14 ZO 1003,2 -
15.10.2018 03:00:00 18,5 17,8 24 13 ZZO 1004,7 -
15.10.2018 02:00:00 19,2 18,4 28 15 ZO 1004,7 3,0
15.10.2018 01:00:00 19,4 18,4 21 11 OZO 1006,0 -
15.10.2018 00:00:00 20,3 18,1 29 16 ZO 1006,6 -
14.10.2018 23:00:00 20,0 18,1 26 14 ZO 1007,1 6
14.10.2018 22:00:00 19,8 18,6 22 12 ZO 1007,3 -
14.10.2018 21:00:00 19,7 18,4 15 8 ZO 1008,1 -

tt = temperatuur
td = dauwpunt
ff = windsnelheid
dd = windrichting
ppp = luchtdruk
vv = zicht

Weerstations in de omgeving